Weather Roundup
Issued by NWS Chicago, IL

Home | Current Version | Previous Version | Text Only | Print | Product List | Glossary Off
Versions: 1 2 3 4 5 6 7 8 9 10 11 12 13 14 15 16 17 18 19 20 21 22 23 24 25 26 27 28 29 30 31 32 33 34 35 36 37 38 39 40 41 42 43 44 45 46 47 48 49 50

000
NZUS59 KLOT 300821
HRRLOT

CHICAGO AREA WEATHER ROUNDUP
NATIONAL WEATHER SERVICE CHICAGO/ROMEOVILLE IL
300 AM CDT TUE JUN 30 2015

NOTE: "FAIR" INDICATES FEW OR NO CLOUDS BELOW 12,000 FEET WITH NO
SIGNIFICANT WEATHER AND/OR OBSTRUCTIONS TO VISIBILITY.

* THESE STATIONS ARE NOT UNDER NWS QUALITY CONTROL. THEY ALSO MAY NOT
  REPORT WEATHER SUCH AS PRECIPITATION OR FOG.

ILZ005-006-012>014-019>023-300900-
NORTHEAST ILLINOIS

CITY           SKY/WX    TMP DP  RH WIND       PRES   REMARKS
OHARE          CLOUDY    65  63  93 W3        29.76F
MIDWAY         CLOUDY    67  65  93 SW5       29.77S FOG
AURORA         PTCLDY    63  60  90 NW6       29.79R
LANSING*       MOCLDY    64  61  92 W3        29.78S
JOLIET*        MOCLDY    66  63  92 CALM      29.78S
WAUKEGAN       FOG       60  59  96 CALM      29.76S VSB 3/4
DUPAGE AIRPORT MOCLDY    63  61  93 W3        29.77S
WHEELING       MOCLDY    66  63  90 W5        29.78S
KANKAKEE*      LGT RAIN  66  65  97 CALM      29.80R
MORRIS*        MOCLDY    64  61  91 SW6       29.77R
LEWIS AIRPORT* DRIZZLE   64  64  97 W5        29.79R
NORTHERLY IS     N/A     66  63  90 S8          N/A
$$

WIZ051-052-058>065-066-070>072-300900-
SOUTHEAST WISCONSIN

CITY           SKY/WX    TMP DP  RH WIND       PRES   REMARKS
MILWAUKEE      CLOUDY    64  61  90 W3        29.76F
KENOSHA*       MOCLDY    61  59  93 W5        29.77S FOG
RACINE*        MOCLDY    63  60  90 CALM      29.77F FOG
BURLINGTON     MOCLDY    59  58  97 NW7       29.77F
WAUKESHA       MOCLDY    59  59 100 W5        29.78F
WEST BEND      PTCLDY    61  55  82 W6        29.77F
$$

INZ001>003-010>013-019-020-300900-
NORTHWEST INDIANA

CITY           SKY/WX    TMP DP  RH WIND       PRES   REMARKS
GARY*          MOCLDY    65  65 100 CALM      29.78S FOG
MICHIGAN CITY* NOT AVBL
RENSSELAER*    NOT AVBL
VALPARAISO     FOG       63  63 100 S3        29.78F VSB 1/4
$$

LMZ740>746-300900-
SOUTHERN LAKE MICHIGAN

STATION/POSITION TIME  SKY/WX   TEMP WIND        PRES    VSBY
                                AIR  DIR/SP/G
                 (UTC)          (F)  (DEG/KT/KT) (MB)    (MI)
HARRISON CRIB    0800            66  200/ 10/ 11   N/A
BURNHAM HARBOR   0800            66  200/  6/  8   N/A
CALUMET HARBOR   0700            66  190/  4/  5   N/A
BURNS HARBOR     0700            65  170/  5/  8 1008.8F
MICHIGAN CITY    0800            63  140/  9/ 11   N/A
$$

ABBREVIATIONS USED IN REMARKS
   TC - TEMPERATURE IN CELSIUS
  WCI - WIND CHILL INDEX
   HX - HEAT INDEX
  VSB - VISIBILITY
$$


USA.gov is the U.S. government's official web portal to all federal, state and local government web resources and services.